[[{"header":{"parameterUnit":"m.s-1","parameterCategory":1,"la1":30.2992,"la2":30.254,"lo1":-89.0895,"lo2":-89.0443,"dy":0.0025,"dx":0.0025,"nx":19,"ny":19,"refTime":"2026-05-08T21:00:00:Z","depth":0,"parameterNumber":2,"parameterNumberName":"U-component_of_WINDS"},"data":[0,0,0,1.059,1.0592,1.0653,1.0653,1.0727,1.0727,0,0,0,0,0,0,0,0,0,0,0,1.0571,1.0571,1.059,1.0592,1.0652,1.0653,1.0727,1.0727,0,0,0,0,0,0,0,0,0,0,0,1.057,1.0571,1.0572,1.0592,1.0652,1.0653,1.0727,1.0682,0,0,0,0,0,0,0,0,0,0,1.0624,1.0604,1.0571,1.0572,1.0592,1.0652,1.0653,1.068,1.0685,1.0698,0,1.0709,0,1.0719,1.0732,1.0732,0,0,0,1.0593,1.06,1.0617,1.0572,1.0593,1.0652,1.0626,1.0683,1.0688,1.0704,1.071,1.0713,1.0721,1.0733,1.0733,1.0803,1.0803,0,0,1.059,1.0581,1.0614,1.0621,1.0612,1.0624,1.0627,1.0686,1.0692,1.0711,1.0715,1.0722,1.0733,1.0734,1.0803,1.0803,0,0,0,1.0579,1.0578,1.0595,1.0618,1.0629,1.0625,1.063,1.0689,1.0696,1.0716,1.0723,1.0734,1.0734,1.0803,1.0803,1.0807,0,0,0,1.0577,1.0572,1.0593,1.0588,1.0628,1.066,1.0632,1.0691,1.0698,1.0722,1.0734,1.0735,1.0802,1.0803,1.0806,1.081,0,0,0,1.0567,1.0571,1.0579,1.0588,1.0613,1.0659,1.0669,1.0693,1.0703,1.0733,1.0735,1.0802,1.0803,1.0805,1.0809,1.0826,0,0,0,1.0554,1.0582,1.0579,1.0613,1.0613,1.0661,1.0669,1.0705,1.0731,1.0734,1.0802,1.0803,1.0805,1.0809,1.0825,1.0838,1.0843,0,0,1.0584,1.0586,1.0606,1.0605,1.0651,1.0652,1.0699,1.0732,1.0744,1.0782,1.0784,1.0806,1.0809,1.0826,1.087,1.0874,0,0,0,1.0613,1.0627,1.0642,1.0666,1.0691,1.0713,1.0739,1.0751,1.0784,1.0762,1.0817,1.0819,1.0829,1.0835,1.0838,1.0847,1.0805,1.0805,1.0805,1.0643,1.0656,1.069,1.0709,1.0732,1.0758,1.0778,1.0798,1.0805,1.0817,1.0829,1.0855,1.0862,1.0865,1.0874,1.0837,1.0837,1.0837,1.0837,1.0689,1.0712,1.0718,1.0754,1.0766,1.0796,1.0822,1.0825,1.0854,1.0847,1.0857,1.0848,1.0868,1.0877,1.0837,1.0837,1.0837,1.0837,1.0837,1.0711,1.0724,1.0737,1.0772,1.0798,1.0816,1.0843,1.0853,1.0863,1.0873,1.0886,1.0886,1.0887,1.0878,1.0878,1.0878,1.0878,1.0878,1.0878,1.0729,1.0743,1.0766,1.0793,1.0809,1.0832,1.0856,1.0872,1.0893,1.0898,1.0898,1.0903,1.0868,1.0859,1.088,1.088,1.0879,1.0879,1.0879,1.0772,1.0763,1.0797,1.0813,1.0846,1.087,1.0882,1.0913,1.0927,1.094,1.0942,1.0915,1.0917,1.0915,1.0907,1.094,1.094,1.094,1.094,1.079,1.0792,1.0828,1.0853,1.0878,1.0892,1.0929,1.0948,1.0966,1.0976,1.0972,1.0963,1.096,1.0964,1.0961,1.0954,1.0998,1.0998,1.0998,1.0817,1.0821,1.0852,1.0869,1.0895,1.0916,1.0951,1.0979,1.0997,1.1,1.0983,1.0981,1.0966,1.0961,1.0965,1.0959,1.0947,0,0]},{"header":{"parameterUnit":"m.s-1","parameterCategory":1,"la1":30.2992,"la2":30.254,"lo1":-89.0895,"lo2":-89.0443,"dy":0.0025,"dx":0.0025,"nx":19,"ny":19,"refTime":"2026-05-08T21:00:00:Z","depth":0,"parameterNumber":3,"parameterNumberName":"V-component_of_WINDS"},"data":[0,0,0,3.0404,3.0404,3.0415,3.0415,3.0431,3.0431,0,0,0,0,0,0,0,0,0,0,0,3.0403,3.0403,3.0404,3.0404,3.0415,3.0415,3.0431,3.0431,0,0,0,0,0,0,0,0,0,0,0,3.0403,3.0403,3.0403,3.0405,3.0415,3.0415,3.0431,3.0422,0,0,0,0,0,0,0,0,0,0,3.0411,3.0411,3.0403,3.0403,3.0405,3.0415,3.0415,3.0421,3.0422,3.0427,0,3.0432,0,3.0432,3.0432,3.0432,0,0,0,3.0403,3.0411,3.0412,3.0403,3.0405,3.0415,3.041,3.0422,3.0423,3.0428,3.0432,3.0433,3.0432,3.0432,3.0433,3.0464,3.0464,0,0,3.0402,3.0405,3.0411,3.0413,3.0412,3.041,3.041,3.0423,3.0427,3.0432,3.0433,3.0432,3.0433,3.0433,3.0463,3.0464,0,0,0,3.0402,3.0405,3.0406,3.0412,3.0414,3.041,3.0411,3.0426,3.0426,3.0433,3.0433,3.0433,3.0433,3.0463,3.0463,3.0476,0,0,0,3.0401,3.0405,3.0406,3.0408,3.0414,3.0421,3.0414,3.0426,3.0427,3.0432,3.0433,3.0433,3.0463,3.0463,3.0475,3.0481,0,0,0,3.0401,3.0405,3.0407,3.0408,3.0413,3.042,3.0421,3.0426,3.0427,3.0432,3.0433,3.0463,3.0463,3.0475,3.048,3.0489,0,0,0,3.0402,3.0419,3.0407,3.0425,3.0413,3.0429,3.0421,3.0433,3.0439,3.0433,3.0463,3.0463,3.0474,3.0479,3.0489,3.0497,3.0501,0,0,3.0424,3.0421,3.0432,3.0422,3.044,3.0427,3.0447,3.045,3.0448,3.0458,3.0459,3.0476,3.048,3.0489,3.0525,3.0528,0,0,0,3.044,3.0447,3.0451,3.0458,3.0461,3.0463,3.0463,3.0464,3.0473,3.0454,3.0482,3.0485,3.049,3.0493,3.0496,3.05,3.0466,3.0466,3.0466,3.0475,3.0471,3.0487,3.0485,3.0491,3.049,3.0494,3.0496,3.049,3.0497,3.05,3.0522,3.0527,3.0529,3.0533,3.0505,3.0505,3.0505,3.0505,3.0506,3.0515,3.0507,3.052,3.0515,3.0526,3.0525,3.0521,3.053,3.052,3.0524,3.0513,3.0532,3.0535,3.0506,3.0506,3.0506,3.0505,3.0505,3.0528,3.0531,3.0532,3.054,3.0547,3.0544,3.0552,3.0548,3.0544,3.0548,3.055,3.055,3.0548,3.055,3.055,3.055,3.055,3.055,3.055,3.0549,3.055,3.0557,3.0561,3.0564,3.0568,3.0567,3.0569,3.0571,3.0567,3.0567,3.056,3.0536,3.0528,3.0551,3.0551,3.0551,3.0551,3.0551,3.058,3.0572,3.0584,3.0587,3.059,3.0596,3.0591,3.0597,3.0598,3.0602,3.0595,3.0577,3.0573,3.0571,3.0565,3.0596,3.0596,3.0596,3.0596,3.0597,3.0595,3.0605,3.061,3.0614,3.0611,3.0623,3.0622,3.062,3.062,3.0616,3.0608,3.0606,3.0603,3.06,3.0595,3.0632,3.0632,3.0632,3.0615,3.0613,3.0624,3.0622,3.0625,3.0626,3.0637,3.0642,3.0639,3.0634,3.062,3.0619,3.0606,3.0603,3.0597,3.0592,3.0582,0,0]}]]